When you browse on this site, cookies collect data to enhance your experience and personalize the content and advertising you see.
Visit our Privacy Policy to learn more. By continuing to use the site, you agree to this use of cookies and data.
  • în România
  • Lista ţărilor
  • Pe 7 zile
  • Temperatura apei
  • Hartă satelitară
  • Meteo pe hartă
  • Widget-uri
  • user-avatar
    Intrare

    Meteo pe oră la Portland

    Astăzi, 22 Mai, Miercuri

    Timp Temperatura Precipitaţii Vânt Presiune Umiditate
    00:00 +12°C° 0 mm 1 m/s 758 mmHg 83%
    01:00 +12°C° 0 mm 1 m/s 758 mmHg 85%
    02:00 +10°C° 0 mm 0 m/s 758 mmHg 86%
    03:00 +10°C° 0 mm 0 m/s 759 mmHg 87%
    04:00 +10°C° 0 mm 0 m/s 759 mmHg 88%
    05:00 +11°C° 0 mm 0 m/s 759 mmHg 83%
    06:00 +12°C° 0 mm 0 m/s 759 mmHg 79%
    07:00 +13°C° 0 mm 0 m/s 760 mmHg 75%
    08:00 +15°C° 0 mm 0 m/s 760 mmHg 68%
    09:00 +17°C° 0 mm 0 m/s 760 mmHg 60%
    10:00 +19°C° 0 mm 0 m/s 760 mmHg 53%
    11:00 +21°C° 0 mm 0 m/s 760 mmHg 48%
    12:00 +25°C° 0 mm 1 m/s 760 mmHg 43%
    13:00 +27°C° 0 mm 1 m/s 760 mmHg 38%
    14:00 +26°C° 0.1 mm 1 m/s 760 mmHg 43%
    15:00 +25°C° 0.1 mm 1 m/s 760 mmHg 47%
    16:00 +24°C° 0.1 mm 1 m/s 760 mmHg 52%
    17:00 +23°C° 0.2 mm 1 m/s 760 mmHg 58%
    18:00 +20°C° 0.2 mm 0 m/s 760 mmHg 64%
    19:00 +19°C° 0.2 mm 0 m/s 760 mmHg 71%
    20:00 +19°C° 0 mm 1 m/s 761 mmHg 74%
    21:00 +18°C° 0 mm 1 m/s 761 mmHg 77%
    22:00 +16°C° 0 mm 1 m/s 761 mmHg 81%
    23:00 +15°C° 0 mm 1 m/s 762 mmHg 83%

    Mâine, 23 Mai, Joi

    Timp Temperatura Precipitaţii Vânt Presiune Umiditate
    00:00 +14°C° 0 mm 1 m/s 762 mmHg 85%
    01:00 +13°C° 0 mm 1 m/s 762 mmHg 87%
    02:00 +13°C° 0 mm 1 m/s 761 mmHg 88%
    03:00 +13°C° 0 mm 1 m/s 761 mmHg 88%
    04:00 +12°C° 0 mm 1 m/s 761 mmHg 89%
    05:00 +12°C° 0 mm 0 m/s 761 mmHg 86%
    06:00 +13°C° 0 mm 0 m/s 761 mmHg 83%
    07:00 +14°C° 0 mm 0 m/s 761 mmHg 79%
    08:00 +16°C° 0 mm 0 m/s 761 mmHg 71%
    09:00 +19°C° 0 mm 0 m/s 760 mmHg 63%
    10:00 +23°C° 0 mm 1 m/s 760 mmHg 55%
    11:00 +25°C° 0 mm 1 m/s 760 mmHg 50%
    12:00 +26°C° 0 mm 1 m/s 759 mmHg 44%
    13:00 +28°C° 0 mm 1 m/s 759 mmHg 39%
    14:00 +28°C° 0 mm 1 m/s 758 mmHg 38%
    15:00 +29°C° 0 mm 2 m/s 758 mmHg 37%
    16:00 +29°C° 0 mm 2 m/s 757 mmHg 36%
    17:00 +27°C° 0 mm 3 m/s 757 mmHg 41%
    18:00 +25°C° 0 mm 3 m/s 758 mmHg 47%
    19:00 +22°C° 0 mm 3 m/s 758 mmHg 52%
    20:00 +20°C° 0 mm 2 m/s 758 mmHg 59%
    21:00 +18°C° 0 mm 2 m/s 758 mmHg 66%
    22:00 +15°C° 0 mm 1 m/s 758 mmHg 73%
    23:00 +14°C° 0 mm 1 m/s 758 mmHg 77%

    Poimâine, 24 Mai, Vineri

    Timp Temperatura Precipitaţii Vânt Presiune Umiditate
    00:00 +14°C° 0 mm 1 m/s 758 mmHg 80%
    01:00 +13°C° 0 mm 1 m/s 758 mmHg 84%
    02:00 +12°C° 0 mm 1 m/s 758 mmHg 84%
    03:00 +12°C° 0 mm 1 m/s 758 mmHg 84%
    04:00 +12°C° 0 mm 1 m/s 758 mmHg 84%
    05:00 +12°C° 0 mm 1 m/s 758 mmHg 82%
    06:00 +12°C° 0 mm 2 m/s 758 mmHg 81%
    07:00 +13°C° 0 mm 2 m/s 758 mmHg 79%
    08:00 +13°C° 0.2 mm 2 m/s 758 mmHg 82%
    09:00 +12°C° 0.2 mm 3 m/s 758 mmHg 84%
    10:00 +12°C° 0.2 mm 3 m/s 758 mmHg 87%
    11:00 +12°C° 0.2 mm 3 m/s 758 mmHg 85%
    12:00 +13°C° 0.2 mm 3 m/s 758 mmHg 84%
    13:00 +13°C° 0.2 mm 3 m/s 758 mmHg 83%
    14:00 +13°C° 0.3 mm 3 m/s 757 mmHg 81%
    15:00 +13°C° 0.3 mm 3 m/s 757 mmHg 80%
    16:00 +13°C° 0.3 mm 3 m/s 757 mmHg 78%
    17:00 +13°C° 0.3 mm 3 m/s 757 mmHg 79%
    18:00 +13°C° 0.3 mm 2 m/s 757 mmHg 80%
    19:00 +13°C° 0.3 mm 1 m/s 757 mmHg 81%
    20:00 +13°C° 0 mm 1 m/s 757 mmHg 83%
    21:00 +12°C° 0 mm 1 m/s 758 mmHg 85%
    22:00 +12°C° 0 mm 1 m/s 758 mmHg 87%
    23:00 +11°C° 0 mm 1 m/s 758 mmHg 87%

    25 Mai, Sâmbătă

    Timp Temperatura Precipitaţii Vânt Presiune Umiditate
    00:00 +11°C° 0 mm 1 m/s 758 mmHg 88%
    01:00 +10°C° 0 mm 1 m/s 758 mmHg 89%
    02:00 +9°C° 0 mm 0 m/s 758 mmHg 89%
    03:00 +9°C° 0 mm 0 m/s 758 mmHg 89%
    04:00 +8°C° 0 mm 0 m/s 759 mmHg 89%
    05:00 +10°C° 0 mm 0 m/s 759 mmHg 85%
    06:00 +11°C° 0 mm 0 m/s 759 mmHg 81%
    07:00 +12°C° 0 mm 0 m/s 759 mmHg 78%
    08:00 +14°C° 0 mm 0 m/s 758 mmHg 68%
    09:00 +18°C° 0 mm 1 m/s 758 mmHg 59%
    10:00 +20°C° 0 mm 2 m/s 758 mmHg 50%
    11:00 +23°C° 0 mm 2 m/s 757 mmHg 45%
    12:00 +25°C° 0 mm 1 m/s 757 mmHg 40%
    13:00 +27°C° 0 mm 1 m/s 756 mmHg 35%
    14:00 +27°C° 0 mm 2 m/s 756 mmHg 33%
    15:00 +27°C° 0 mm 2 m/s 755 mmHg 31%
    16:00 +28°C° 0 mm 2 m/s 755 mmHg 29%
    17:00 +27°C° 0 mm 2 m/s 755 mmHg 35%
    18:00 +25°C° 0 mm 2 m/s 755 mmHg 41%
    19:00 +24°C° 0 mm 2 m/s 755 mmHg 47%
    20:00 +21°C° 0 mm 2 m/s 756 mmHg 54%
    21:00 +19°C° 0 mm 2 m/s 756 mmHg 60%
    22:00 +18°C° 0 mm 2 m/s 756 mmHg 66%
    23:00 +18°C° 0 mm 1 m/s 756 mmHg 68%

    26 Mai, Duminică

    Timp Temperatura Precipitaţii Vânt Presiune Umiditate
    00:00 +16°C° 0 mm 1 m/s 756 mmHg 70%
    01:00 +15°C° 0 mm 1 m/s 756 mmHg 72%
    02:00 +15°C° 0 mm 1 m/s 756 mmHg 73%
    03:00 +14°C° 0 mm 1 m/s 756 mmHg 75%
    04:00 +14°C° 0 mm 1 m/s 756 mmHg 76%
    05:00 +15°C° 0 mm 1 m/s 756 mmHg 71%
    06:00 +18°C° 0 mm 1 m/s 756 mmHg 66%
    07:00 +19°C° 0 mm 1 m/s 756 mmHg 62%
    08:00 +22°C° 0 mm 1 m/s 756 mmHg 54%
    09:00 +25°C° 0 mm 1 m/s 756 mmHg 45%
    10:00 +27°C° 0 mm 1 m/s 756 mmHg 37%
    11:00 +29°C° 0 mm 1 m/s 756 mmHg 34%
    12:00 +30°C° 0 mm 1 m/s 755 mmHg 31%
    13:00 +32°C° 0 mm 1 m/s 755 mmHg 28%
    14:00 +31°C° 0 mm 1 m/s 755 mmHg 32%
    15:00 +30°C° 0 mm 2 m/s 755 mmHg 36%
    16:00 +29°C° 0 mm 2 m/s 755 mmHg 40%
    17:00 +27°C° 0.1 mm 2 m/s 755 mmHg 50%
    18:00 +24°C° 0.1 mm 2 m/s 755 mmHg 60%
    19:00 +21°C° 0.1 mm 3 m/s 756 mmHg 69%
    20:00 +20°C° 0.2 mm 2 m/s 756 mmHg 75%
    21:00 +19°C° 0.2 mm 2 m/s 757 mmHg 80%
    22:00 +19°C° 0.2 mm 1 m/s 757 mmHg 85%
    23:00 +19°C° 0.2 mm 1 m/s 757 mmHg 87%

    27 Mai, Luni

    Timp Temperatura Precipitaţii Vânt Presiune Umiditate
    00:00 +17°C° 0.2 mm 2 m/s 758 mmHg 88%
    01:00 +17°C° 0.2 mm 2 m/s 758 mmHg 89%
    02:00 +16°C° 0.4 mm 2 m/s 758 mmHg 90%
    03:00 +16°C° 0.4 mm 2 m/s 759 mmHg 90%
    04:00 +15°C° 0.4 mm 2 m/s 759 mmHg 91%
    05:00 +15°C° 0.5 mm 2 m/s 759 mmHg 91%
    06:00 +15°C° 0.5 mm 2 m/s 760 mmHg 92%
    07:00 +15°C° 0.5 mm 2 m/s 760 mmHg 92%
    08:00 +15°C° 0.3 mm 2 m/s 760 mmHg 92%
    09:00 +15°C° 0.3 mm 2 m/s 760 mmHg 91%
    10:00 +15°C° 0.3 mm 2 m/s 761 mmHg 91%
    11:00 +15°C° 0.1 mm 2 m/s 761 mmHg 87%
    12:00 +16°C° 0.1 mm 1 m/s 761 mmHg 83%
    13:00 +18°C° 0.1 mm 1 m/s 761 mmHg 78%
    14:00 +18°C° 0.1 mm 1 m/s 761 mmHg 78%
    15:00 +19°C° 0.1 mm 1 m/s 761 mmHg 78%
    16:00 +19°C° 0.1 mm 1 m/s 761 mmHg 77%
    17:00 +19°C° 0.1 mm 1 m/s 761 mmHg 78%
    18:00 +19°C° 0.1 mm 1 m/s 761 mmHg 79%
    19:00 +18°C° 0.1 mm 1 m/s 761 mmHg 80%
    20:00 +18°C° 0.1 mm 1 m/s 762 mmHg 81%
    21:00 +16°C° 0.1 mm 1 m/s 762 mmHg 82%
    22:00 +15°C° 0.1 mm 1 m/s 762 mmHg 83%
    23:00 +14°C° 0 mm 1 m/s 762 mmHg 84%
    Arată mai mult